QPF
0.03 0.05 0.07 0.06 0.06 0.07 0.08 0.08 0.09 0.08 0.07 0.06 0.05 0.04 0.02 0.02 0.02 0.03 0.03 0.04 0.04 0.04 0.05 0.05 0.04 0.04 0.05 0.06 0.06 0.06 0.06 0.06 0.08 0.10 0.12 0.08 0.07 0.05 0.04 0.04 0.04 0.04 0.03
0.06 0.10 0.13 0.14 0.13 0.12 0.13 0.13 0.10 0.09 0.07 0.05 0.04 0.02 0.02 0.02 0.02 0.02 0.03 0.04 0.04 0.04 0.05 0.05 0.04 0.04 0.05 0.06 0.07 0.07 0.06 0.05 0.06 0.07 0.09 0.09 0.08 0.07 0.06 0.06 0.04 0.03 0.03
0.02 0.04 0.07 0.07 0.06 0.05 0.06 0.06 0.05 0.04 0.03 0.02 0.01 0.01 0.01 0.01 0.01 0.02 0.02 0.03 0.03 0.04 0.06 0.05 0.05 0.05 0.04 0.04 0.06 0.06 0.05 0.04 0.05 0.06 0.07 0.07 0.07 0.06 0.06 0.05 0.05 0.05 0.03
0.00 0.01 0.02 0.03 0.03 0.03 0.04 0.03 0.03 0.03 0.02 0.02 0.01 0.01 0.01 0.01 0.01 0.02 0.02 0.03 0.03 0.03 0.04 0.04 0.05 0.04 0.04 0.05 0.05 0.06 0.05 0.05 0.04 0.04 0.05 0.05 0.05 0.05 0.06 0.06 0.05 0.05 0.04
0.00 0.01 0.01 0.02 0.01 0.02 0.03 0.03 0.02 0.02 0.02 0.03 0.02 0.02 0.02 0.01 0.01 0.01 0.02 0.02 0.02 0.02 0.03 0.03 0.03 0.03 0.04 0.05 0.05 0.06 0.06 0.07 0.06 0.05 0.05 0.04 0.04 0.04 0.04 0.05 0.05 0.06 0.06
0.00 0.00 0.01 0.01 0.01 0.02 0.04 0.04 0.03 0.03 0.03 0.03 0.03 0.02 0.02 0.01 0.01 0.01 0.01 0.02 0.02 0.02 0.03 0.03 0.03 0.02 0.02 0.02 0.03 0.04 0.06 0.07 0.05 0.05 0.05 0.04 0.04 0.04 0.04 0.04 0.05 0.05 0.05
0.00 0.00 0.01 0.01 0.01 0.02 0.02 0.03 0.03 0.03 0.02 0.02 0.02 0.01 0.01 0.01 0.01 0.00 0.00 0.01 0.02 0.02 0.02 0.02 0.02 0.01 0.01 0.02 0.02 0.03 0.05 0.05 0.04 0.04 0.04 0.04 0.04 0.03 0.04 0.04 0.05 0.05 0.05
0.00 0.00 0.00 0.01 0.01 0.01 0.02 0.02 0.02 0.02 0.02 0.01 0.01 0.01 0.01 0.01 0.01 0.01 0.00 0.00 0.01 0.01 0.01 0.01 0.02 0.02 0.01 0.02 0.02 0.04 0.04 0.05 0.04 0.04 0.04 0.05 0.04 0.03 0.04 0.04 0.05 0.05 0.06
0.00 0.00 0.00 0.01 0.01 0.01 0.01 0.02 0.03 0.02 0.02 0.01 0.01 0.01 0.01 0.01 0.01 0.01 0.01 0.00 0.00 0.00 0.00 0.01 0.01 0.02 0.01 0.02 0.03 0.04 0.04 0.04 0.03 0.03 0.03 0.04 0.03 0.03 0.04 0.05 0.05 0.06 0.07
0.00 0.00 0.00 0.00 0.01 0.01 0.01 0.02 0.02 0.02 0.01 0.01 0.01 0.01 0.01 0.02 0.02 0.02 0.01 0.00 0.00 0.01 0.01 0.01 0.01 0.02 0.02 0.01 0.02 0.03 0.03 0.02 0.02 0.02 0.02 0.02 0.03 0.04 0.04 0.05 0.05 0.06 0.09
0.00 0.00 0.01 0.01 0.01 0.01 0.01 0.01 0.02 0.02 0.01 0.01 0.01 0.01 0.01 0.02 0.01 0.01 0.01 0.01 0.01 0.01 0.01 0.01 0.01 0.01 0.01 0.00 0.01 0.01 0.02 0.01 0.02 0.03 0.03 0.03 0.03 0.03 0.05 0.05 0.06 0.06 0.07
0.01 0.01 0.01 0.01 0.01 0.01 0.02 0.02 0.02 0.02 0.02 0.02 0.02 0.02 0.02 0.01 0.01 0.01 0.01 0.01 0.01 0.02 0.02 0.01 0.01 0.01 0.00 0.00 0.00 0.01 0.01 0.01 0.02 0.03 0.04 0.03 0.04 0.03 0.03 0.05 0.06 0.07 0.07
0.01 0.01 0.01 0.02 0.02 0.01 0.01 0.01 0.02 0.02 0.02 0.03 0.02 0.03 0.03 0.02 0.01 0.01 0.01 0.01 0.01 0.01 0.01 0.01 0.02 0.02 0.02 0.01 0.01 0.01 0.01 0.01 0.02 0.03 0.03 0.02 0.03 0.04 0.04 0.05 0.06 0.08 0.07
0.01 0.01 0.01 0.01 0.01 0.01 0.01 0.01 0.02 0.03 0.02 0.02 0.02 0.02 0.02 0.01 0.02 0.02 0.01 0.01 0.01 0.01 0.01 0.01 0.01 0.01 0.01 0.01 0.01 0.01 0.01 0.01 0.01 0.02 0.04 0.03 0.04 0.05 0.05 0.05 0.06 0.07 0.07
0.01 0.01 0.01 0.01 0.01 0.01 0.01 0.02 0.02 0.03 0.02 0.01 0.01 0.01 0.01 0.01 0.01 0.01 0.01 0.01 0.01 0.01 0.01 0.01 0.01 0.01 0.01 0.01 0.01 0.01 0.01 0.02 0.02 0.02 0.03 0.03 0.04 0.04 0.04 0.04 0.05 0.04 0.05
0.01 0.01 0.00 0.00 0.01 0.01 0.01 0.03 0.03 0.02 0.01 0.01 0.01 0.00 0.00 0.00 0.01 0.01 0.01 0.01 0.01 0.01 0.01 0.01 0.01 0.01 0.02 0.01 0.01 0.01 0.01 0.01 0.02 0.03 0.03 0.03 0.04 0.04 0.03 0.04 0.05 0.05 0.04
0.01 0.01 0.01 0.00 0.00 0.00 0.01 0.03 0.02 0.01 0.00 0.00 0.00 0.00 0.00 0.00 0.00 0.00 0.00 0.00 0.00 0.00 0.01 0.01 0.01 0.02 0.02 0.02 0.02 0.02 0.02 0.02 0.02 0.03 0.03 0.04 0.05 0.04 0.03 0.03 0.05 0.05 0.05
0.01 0.01 0.01 0.01 0.00 0.01 0.03 0.04 0.02 0.01 0.00 0.00 0.00 0.00 0.00 0.00 0.00 0.00 0.00 0.00 0.00 0.00 0.01 0.01 0.01 0.01 0.01 0.02 0.02 0.02 0.02 0.02 0.03 0.03 0.04 0.04 0.04 0.04 0.03 0.04 0.05 0.05 0.05
0.01 0.01 0.01 0.01 0.01 0.02 0.05 0.04 0.02 0.01 0.00 0.00 0.00 0.00 0.00 0.00 0.00 0.00 0.00 0.00 0.01 0.01 0.01 0.01 0.01 0.01 0.01 0.02 0.02 0.02 0.02 0.02 0.02 0.03 0.03 0.02 0.02 0.03 0.04 0.04 0.05 0.05 0.05
0.01 0.01 0.02 0.02 0.02 0.03 0.04 0.03 0.02 0.00 0.01 0.00 0.00 0.00 0.00 0.00 0.00 0.01 0.01 0.01 0.01 0.00 0.01 0.01 0.01 0.01 0.01 0.01 0.01 0.01 0.02 0.02 0.02 0.02 0.03 0.02 0.02 0.02 0.02 0.04 0.06 0.06 0.06
0.02 0.01 0.01 0.02 0.04 0.04 0.02 0.01 0.01 0.01 0.01 0.01 0.01 0.00 0.00 0.00 0.00 0.01 0.01 0.01 0.01 0.01 0.01 0.01 0.01 0.00 0.00 0.00 0.01 0.01 0.02 0.02 0.01 0.01 0.02 0.02 0.03 0.03 0.02 0.03 0.03 0.04 0.04
0.03 0.02 0.02 0.04 0.05 0.04 0.02 0.02 0.01 0.01 0.02 0.02 0.01 0.00 0.01 0.01 0.01 0.01 0.01 0.01 0.01 0.02 0.02 0.02 0.01 0.01 0.01 0.01 0.01 0.01 0.01 0.01 0.01 0.01 0.01 0.01 0.02 0.02 0.02 0.02 0.03 0.03 0.02
0.05 0.06 0.06 0.05 0.04 0.03 0.02 0.02 0.02 0.02 0.02 0.02 0.01 0.01 0.01 0.01 0.01 0.01 0.01 0.01 0.01 0.01 0.01 0.02 0.02 0.02 0.01 0.01 0.01 0.01 0.01 0.01 0.01 0.01 0.02 0.02 0.03 0.03 0.02 0.03 0.03 0.02 0.02
0.05 0.05 0.05 0.04 0.03 0.03 0.02 0.02 0.02 0.02 0.02 0.01 0.01 0.01 0.02 0.02 0.02 0.01 0.01 0.01 0.01 0.01 0.02 0.03 0.03 0.02 0.01 0.01 0.01 0.01 0.01 0.01 0.01 0.02 0.02 0.02 0.02 0.03 0.03 0.03 0.03 0.03 0.02
0.02 0.04 0.04 0.05 0.04 0.03 0.02 0.02 0.02 0.02 0.01 0.01 0.01 0.01 0.02 0.02 0.02 0.01 0.01 0.01 0.01 0.01 0.02 0.02 0.02 0.01 0.01 0.01 0.01 0.01 0.01 0.01 0.01 0.02 0.02 0.02 0.02 0.02 0.03 0.03 0.03 0.03 0.02
0.01 0.01 0.03 0.04 0.04 0.03 0.02 0.01 0.01 0.02 0.02 0.02 0.01 0.01 0.01 0.01 0.01 0.00 0.00 0.00 0.01 0.01 0.01 0.01 0.00 0.01 0.01 0.02 0.01 0.01 0.01 0.01 0.01 0.02 0.02 0.02 0.02 0.02 0.03 0.03 0.02 0.02 0.01
MSLP
1007.47 1007.72 1007.97 1008.22 1008.45 1008.68 1008.90 1009.12 1009.37 1009.66 1009.99 1010.37 1010.80 1011.27 1011.75 1012.23 1012.68 1013.08 1013.41 1013.68 1013.87 1014.02 1014.12 1014.21 1014.30 1014.40 1014.52 1014.66 1014.82 1014.98 1015.14 1015.28 1015.39 1015.47 1015.50 1015.51 1015.50 1015.47 1015.44 1015.40 1015.38 1015.36 1015.35
1007.38 1007.63 1007.88 1008.13 1008.37 1008.62 1008.87 1009.13 1009.41 1009.71 1010.05 1010.42 1010.82 1011.24 1011.66 1012.08 1012.47 1012.82 1013.12 1013.37 1013.56 1013.71 1013.84 1013.96 1014.08 1014.22 1014.38 1014.56 1014.75 1014.95 1015.15 1015.31 1015.45 1015.53 1015.57 1015.56 1015.52 1015.44 1015.34 1015.23 1015.12 1015.02 1014.92
1007.36 1007.61 1007.85 1008.10 1008.35 1008.60 1008.86 1009.14 1009.44 1009.75 1010.09 1010.44 1010.81 1011.19 1011.57 1011.93 1012.27 1012.58 1012.85 1013.07 1013.27 1013.43 1013.59 1013.74 1013.90 1014.08 1014.28 1014.50 1014.74 1014.97 1015.19 1015.38 1015.52 1015.61 1015.64 1015.61 1015.53 1015.41 1015.25 1015.08 1014.89 1014.70 1014.51
1007.40 1007.65 1007.89 1008.13 1008.37 1008.63 1008.90 1009.18 1009.49 1009.81 1010.14 1010.49 1010.84 1011.18 1011.52 1011.84 1012.13 1012.40 1012.63 1012.84 1013.03 1013.21 1013.38 1013.56 1013.75 1013.97 1014.20 1014.46 1014.72 1014.97 1015.21 1015.40 1015.55 1015.64 1015.65 1015.61 1015.50 1015.34 1015.13 1014.90 1014.65 1014.39 1014.14
1007.45 1007.72 1007.96 1008.20 1008.43 1008.69 1008.95 1009.24 1009.55 1009.88 1010.22 1010.56 1010.90 1011.22 1011.53 1011.81 1012.07 1012.30 1012.51 1012.69 1012.87 1013.04 1013.22 1013.41 1013.61 1013.84 1014.10 1014.36 1014.63 1014.89 1015.13 1015.32 1015.46 1015.53 1015.54 1015.48 1015.35 1015.17 1014.94 1014.68 1014.40 1014.10 1013.79
1007.49 1007.76 1008.02 1008.25 1008.49 1008.74 1009.01 1009.30 1009.62 1009.95 1010.29 1010.63 1010.96 1011.27 1011.56 1011.82 1012.05 1012.25 1012.43 1012.59 1012.75 1012.90 1013.06 1013.24 1013.45 1013.67 1013.91 1014.17 1014.43 1014.67 1014.89 1015.07 1015.20 1015.27 1015.27 1015.20 1015.07 1014.89 1014.66 1014.39 1014.10 1013.78 1013.45
1007.44 1007.74 1008.00 1008.25 1008.50 1008.75 1009.02 1009.31 1009.62 1009.96 1010.30 1010.64 1010.97 1011.28 1011.56 1011.80 1012.01 1012.20 1012.35 1012.49 1012.62 1012.74 1012.88 1013.04 1013.21 1013.41 1013.63 1013.85 1014.08 1014.30 1014.50 1014.66 1014.77 1014.82 1014.82 1014.75 1014.63 1014.47 1014.26 1014.01 1013.73 1013.43 1013.11
1007.27 1007.59 1007.89 1008.15 1008.40 1008.66 1008.93 1009.21 1009.52 1009.85 1010.18 1010.52 1010.84 1011.14 1011.42 1011.66 1011.87 1012.04 1012.18 1012.30 1012.41 1012.52 1012.63 1012.75 1012.89 1013.05 1013.23 1013.42 1013.61 1013.79 1013.95 1014.08 1014.17 1014.22 1014.22 1014.16 1014.06 1013.92 1013.74 1013.53 1013.29 1013.02 1012.72
1006.94 1007.31 1007.63 1007.92 1008.19 1008.45 1008.71 1008.98 1009.27 1009.58 1009.89 1010.21 1010.52 1010.82 1011.09 1011.33 1011.54 1011.71 1011.86 1011.98 1012.08 1012.18 1012.27 1012.37 1012.49 1012.61 1012.75 1012.90 1013.04 1013.19 1013.31 1013.41 1013.48 1013.51 1013.51 1013.46 1013.38 1013.27 1013.12 1012.95 1012.75 1012.53 1012.27
1006.47 1006.88 1007.24 1007.56 1007.85 1008.11 1008.36 1008.62 1008.87 1009.14 1009.42 1009.71 1010.00 1010.28 1010.54 1010.79 1011.01 1011.20 1011.37 1011.51 1011.63 1011.73 1011.82 1011.91 1012.01 1012.11 1012.21 1012.33 1012.44 1012.54 1012.64 1012.71 1012.75 1012.77 1012.75 1012.70 1012.63 1012.53 1012.42 1012.28 1012.12 1011.94 1011.73
1005.88 1006.33 1006.73 1007.08 1007.39 1007.66 1007.90 1008.13 1008.35 1008.57 1008.81 1009.05 1009.31 1009.57 1009.83 1010.08 1010.32 1010.54 1010.73 1010.91 1011.05 1011.18 1011.29 1011.39 1011.48 1011.57 1011.66 1011.75 1011.83 1011.90 1011.96 1012.00 1012.02 1012.01 1011.98 1011.92 1011.84 1011.75 1011.64 1011.53 1011.40 1011.26 1011.10
1005.20 1005.68 1006.12 1006.51 1006.84 1007.11 1007.34 1007.55 1007.73 1007.91 1008.10 1008.30 1008.52 1008.76 1009.02 1009.28 1009.54 1009.79 1010.02 1010.23 1010.42 1010.58 1010.71 1010.83 1010.93 1011.01 1011.09 1011.16 1011.22 1011.27 1011.31 1011.32 1011.31 1011.27 1011.21 1011.13 1011.03 1010.93 1010.82 1010.72 1010.61 1010.50 1010.38
1004.46 1004.97 1005.44 1005.85 1006.20 1006.48 1006.71 1006.90 1007.06 1007.21 1007.36 1007.53 1007.73 1007.95 1008.20 1008.48 1008.76 1009.04 1009.31 1009.56 1009.77 1009.96 1010.11 1010.24 1010.34 1010.43 1010.50 1010.56 1010.61 1010.64 1010.65 1010.64 1010.61 1010.54 1010.46 1010.35 1010.23 1010.10 1009.98 1009.87 1009.77 1009.69 1009.61
1003.71 1004.22 1004.69 1005.12 1005.48 1005.77 1006.01 1006.19 1006.34 1006.48 1006.62 1006.79 1006.98 1007.21 1007.47 1007.76 1008.06 1008.36 1008.65 1008.92 1009.15 1009.34 1009.50 1009.62 1009.72 1009.79 1009.85 1009.89 1009.93 1009.95 1009.95 1009.93 1009.88 1009.81 1009.70 1009.57 1009.43 1009.29 1009.16 1009.04 1008.95 1008.89 1008.84
1002.97 1003.43 1003.88 1004.29 1004.65 1004.95 1005.20 1005.40 1005.57 1005.73 1005.89 1006.08 1006.30 1006.55 1006.84 1007.15 1007.47 1007.78 1008.07 1008.33 1008.55 1008.72 1008.84 1008.94 1009.00 1009.05 1009.08 1009.11 1009.14 1009.16 1009.16 1009.15 1009.11 1009.04 1008.94 1008.81 1008.67 1008.53 1008.39 1008.28 1008.21 1008.16 1008.15
1002.23 1002.61 1002.99 1003.36 1003.69 1003.99 1004.25 1004.48 1004.70 1004.91 1005.13 1005.38 1005.65 1005.96 1006.28 1006.62 1006.95 1007.26 1007.53 1007.76 1007.92 1008.04 1008.11 1008.14 1008.15 1008.15 1008.16 1008.17 1008.19 1008.23 1008.26 1008.28 1008.28 1008.25 1008.18 1008.09 1007.98 1007.86 1007.74 1007.65 1007.60 1007.58 1007.60
1001.50 1001.75 1002.03 1002.32 1002.60 1002.88 1003.15 1003.42 1003.69 1003.97 1004.28 1004.60 1004.96 1005.33 1005.71 1006.08 1006.42 1006.71 1006.95 1007.12 1007.22 1007.26 1007.25 1007.20 1007.15 1007.09 1007.07 1007.07 1007.10 1007.17 1007.25 1007.33 1007.40 1007.44 1007.45 1007.43 1007.38 1007.31 1007.24 1007.18 1007.16 1007.16 1007.21
1000.80 1000.89 1001.02 1001.20 1001.40 1001.64 1001.90 1002.19 1002.52 1002.87 1003.26 1003.69 1004.13 1004.57 1005.01 1005.41 1005.76 1006.04 1006.23 1006.34 1006.36 1006.32 1006.22 1006.10 1005.98 1005.89 1005.84 1005.84 1005.91 1006.02 1006.18 1006.35 1006.52 1006.66 1006.78 1006.85 1006.89 1006.90 1006.89 1006.88 1006.89 1006.92 1006.98
1000.17 1000.07 1000.03 1000.06 1000.16 1000.32 1000.55 1000.84 1001.20 1001.61 1002.07 1002.57 1003.09 1003.61 1004.09 1004.52 1004.87 1005.13 1005.29 1005.35 1005.30 1005.19 1005.03 1004.86 1004.70 1004.58 1004.54 1004.57 1004.69 1004.88 1005.13 1005.40 1005.69 1005.96 1006.19 1006.38 1006.52 1006.61 1006.67 1006.72 1006.76 1006.80 1006.86
999.65 999.36 999.15 999.02 998.98 999.04 999.20 999.45 999.80 1000.23 1000.72 1001.27 1001.83 1002.38 1002.90 1003.35 1003.70 1003.95 1004.09 1004.11 1004.04 1003.89 1003.71 1003.52 1003.37 1003.27 1003.26 1003.36 1003.55 1003.83 1004.18 1004.57 1004.98 1005.36 1005.71 1006.01 1006.24 1006.42 1006.54 1006.62 1006.68 1006.72 1006.76
999.31 998.84 998.45 998.16 997.97 997.90 997.95 998.13 998.42 998.81 999.28 999.81 1000.38 1000.93 1001.45 1001.90 1002.25 1002.50 1002.63 1002.66 1002.60 1002.47 1002.32 1002.18 1002.08 1002.05 1002.12 1002.30 1002.59 1002.97 1003.42 1003.91 1004.42 1004.90 1005.35 1005.72 1006.03 1006.26 1006.42 1006.53 1006.58 1006.61 1006.60
999.17 998.57 998.03 997.58 997.24 997.02 996.93 996.98 997.16 997.45 997.85 998.31 998.82 999.33 999.81 1000.24 1000.59 1000.84 1001.00 1001.07 1001.07 1001.02 1000.96 1000.92 1000.93 1001.02 1001.20 1001.49 1001.88 1002.36 1002.89 1003.46 1004.03 1004.58 1005.07 1005.49 1005.83 1006.08 1006.26 1006.36 1006.40 1006.39 1006.34
999.25 998.54 997.89 997.30 996.81 996.44 996.20 996.09 996.12 996.27 996.53 996.87 997.27 997.69 998.11 998.50 998.83 999.11 999.32 999.47 999.57 999.65 999.74 999.85 1000.02 1000.26 1000.58 1000.99 1001.48 1002.04 1002.63 1003.23 1003.83 1004.38 1004.88 1005.29 1005.62 1005.86 1006.01 1006.09 1006.09 1006.04 1005.94
999.44 998.69 997.95 997.27 996.65 996.14 995.75 995.47 995.33 995.31 995.40 995.59 995.85 996.16 996.49 996.83 997.15 997.45 997.73 997.99 998.23 998.48 998.75 999.06 999.41 999.82 1000.29 1000.82 1001.39 1001.99 1002.61 1003.21 1003.78 1004.30 1004.74 1005.10 1005.38 1005.58 1005.69 1005.73 1005.70 1005.61 1005.47
999.62 998.85 998.07 997.32 996.62 996.00 995.47 995.06 994.75 994.57 994.50 994.53 994.65 994.84 995.09 995.38 995.69 996.03 996.39 996.77 997.18 997.61 998.07 998.57 999.12 999.69 1000.30 1000.93 1001.57 1002.20 1002.80 1003.36 1003.87 1004.31 1004.67 1004.95 1005.15 1005.28 1005.34 1005.34 1005.28 1005.17 1005.01
999.60 998.84 998.06 997.28 996.53 995.84 995.23 994.72 994.30 994.00 993.80 993.71 993.72 993.82 994.00 994.26 994.58 994.97 995.42 995.93 996.49 997.09 997.75 998.43 999.15 999.87 1000.59 1001.30 1001.97 1002.59 1003.16 1003.65 1004.07 1004.41 1004.67 1004.86 1004.98 1005.04 1005.05 1005.01 1004.93 1004.82 1004.66
Thickness
5697 5693 5689 5686 5683 5680 5676 5674 5671 5668 5665 5663 5661 5659 5657 5655 5654 5651 5651 5649 5647 5645 5644 5643 5641 5641 5641 5642 5641 5640 5639 5638 5636 5639 5641 5641 5639 5639 5640 5641 5643 5644 5647
5694 5690 5686 5682 5679 5676 5673 5670 5668 5665 5663 5660 5658 5656 5654 5652 5650 5648 5647 5646 5644 5642 5641 5639 5638 5637 5636 5635 5634 5633 5632 5631 5629 5629 5631 5632 5631 5632 5633 5633 5637 5639 5641
5691 5686 5682 5678 5675 5671 5668 5666 5664 5661 5659 5657 5655 5652 5651 5649 5647 5645 5643 5641 5640 5638 5637 5635 5634 5632 5630 5630 5628 5628 5627 5626 5624 5623 5624 5625 5625 5626 5626 5627 5630 5630 5633
5686 5682 5678 5673 5670 5667 5665 5662 5660 5658 5655 5653 5651 5649 5647 5646 5644 5642 5640 5638 5636 5635 5633 5631 5630 5628 5626 5624 5623 5622 5621 5620 5619 5617 5618 5619 5618 5619 5619 5620 5622 5624 5626
5680 5677 5673 5669 5666 5663 5660 5658 5656 5654 5653 5650 5648 5646 5644 5642 5640 5636 5635 5634 5632 5630 5628 5627 5625 5622 5619 5617 5617 5616 5615 5614 5613 5613 5613 5613 5612 5611 5612 5614 5614 5616 5617
5674 5672 5669 5665 5662 5659 5657 5654 5652 5650 5648 5646 5644 5642 5640 5639 5632 5628 5627 5628 5627 5625 5623 5621 5620 5617 5613 5609 5608 5606 5605 5606 5607 5606 5606 5605 5604 5604 5604 5604 5605 5606 5607
5670 5668 5665 5662 5659 5656 5654 5651 5648 5646 5644 5641 5640 5638 5636 5632 5626 5623 5620 5621 5622 5620 5618 5616 5616 5614 5609 5608 5604 5602 5600 5598 5595 5596 5596 5596 5595 5596 5596 5596 5596 5596 5597
5666 5664 5661 5658 5655 5653 5650 5646 5644 5642 5639 5637 5635 5634 5631 5628 5622 5619 5616 5617 5618 5616 5614 5612 5609 5607 5605 5601 5601 5600 5597 5595 5592 5589 5588 5587 5588 5587 5587 5588 5588 5588 5589
5662 5660 5657 5654 5650 5647 5645 5642 5639 5637 5635 5633 5632 5630 5627 5624 5619 5615 5612 5616 5615 5613 5611 5608 5606 5603 5597 5593 5594 5594 5592 5590 5587 5583 5581 5579 5578 5577 5577 5579 5581 5581 5583
5658 5656 5653 5649 5646 5643 5640 5637 5635 5633 5631 5630 5628 5626 5624 5621 5615 5611 5607 5614 5613 5611 5609 5606 5600 5596 5591 5588 5589 5588 5586 5585 5584 5581 5577 5575 5574 5573 5571 5571 5574 5575 5576
5655 5652 5649 5645 5642 5639 5636 5633 5630 5629 5627 5625 5624 5622 5620 5616 5612 5607 5604 5607 5608 5607 5607 5604 5600 5591 5586 5582 5581 5582 5580 5578 5579 5578 5577 5575 5574 5572 5570 5569 5569 5570 5571
5650 5647 5644 5641 5639 5637 5632 5629 5627 5624 5623 5621 5620 5618 5618 5614 5609 5605 5601 5598 5597 5599 5599 5598 5594 5586 5581 5578 5577 5576 5573 5572 5575 5575 5574 5573 5572 5570 5569 5567 5565 5565 5565
5644 5641 5639 5636 5634 5631 5628 5626 5623 5621 5621 5620 5618 5615 5613 5612 5607 5600 5597 5594 5591 5591 5592 5587 5583 5579 5577 5576 5573 5571 5570 5572 5572 5571 5570 5569 5568 5567 5565 5563 5562 5561 5561
5638 5636 5634 5632 5630 5627 5625 5623 5620 5618 5617 5615 5613 5611 5609 5606 5603 5600 5598 5594 5588 5587 5586 5582 5577 5575 5574 5572 5572 5571 5570 5569 5568 5567 5566 5565 5564 5563 5561 5561 5560 5559 5559
5634 5631 5630 5629 5627 5623 5620 5616 5614 5611 5608 5606 5606 5604 5602 5599 5593 5585 5586 5587 5585 5583 5579 5581 5580 5578 5575 5574 5572 5570 5568 5566 5563 5562 5561 5560 5559 5558 5557 5557 5556 5556 5556
5629 5627 5627 5625 5623 5621 5618 5613 5606 5603 5599 5595 5592 5591 5592 5587 5582 5580 5577 5575 5573 5571 5572 5577 5575 5573 5571 5569 5567 5566 5565 5563 5560 5558 5556 5555 5554 5553 5553 5553 5552 5552 5551
5624 5623 5623 5622 5620 5619 5616 5613 5608 5601 5595 5592 5589 5586 5583 5579 5577 5574 5572 5570 5568 5566 5571 5572 5570 5568 5566 5564 5563 5562 5560 5558 5555 5553 5552 5551 5550 5549 5548 5548 5547 5547 5547
5621 5619 5618 5617 5617 5615 5613 5611 5608 5604 5601 5596 5590 5583 5580 5576 5574 5571 5568 5567 5571 5568 5569 5568 5565 5563 5561 5559 5558 5556 5555 5553 5550 5549 5548 5547 5546 5544 5543 5542 5542 5541 5542
5617 5617 5614 5614 5613 5612 5610 5608 5605 5602 5600 5598 5594 5587 5579 5576 5572 5568 5565 5569 5571 5569 5566 5564 5561 5559 5557 5555 5553 5551 5549 5547 5546 5544 5543 5542 5541 5540 5539 5538 5537 5534 5534
5613 5608 5608 5610 5610 5609 5607 5604 5602 5600 5597 5595 5592 5588 5583 5579 5577 5573 5569 5568 5567 5565 5563 5560 5557 5554 5551 5550 5548 5547 5545 5543 5542 5540 5538 5537 5537 5536 5535 5533 5532 5531 5531
5611 5608 5603 5606 5607 5605 5603 5601 5599 5597 5595 5593 5590 5585 5576 5578 5576 5573 5570 5567 5564 5561 5558 5555 5553 5550 5547 5545 5543 5542 5540 5539 5538 5536 5534 5533 5531 5530 5529 5529 5528 5527 5526
5607 5606 5604 5603 5602 5601 5599 5597 5596 5595 5593 5590 5588 5584 5575 5576 5575 5572 5569 5565 5561 5557 5554 5551 5549 5547 5544 5541 5539 5537 5536 5535 5533 5531 5529 5527 5525 5524 5524 5524 5523 5522 5522
5601 5601 5600 5599 5598 5595 5595 5595 5594 5592 5590 5587 5586 5583 5578 5576 5573 5570 5567 5563 5558 5555 5551 5548 5545 5543 5540 5537 5534 5533 5532 5530 5528 5525 5524 5523 5522 5520 5519 5519 5520 5519 5519
5597 5596 5595 5594 5594 5593 5592 5591 5590 5588 5586 5584 5581 5579 5576 5573 5570 5567 5564 5560 5556 5552 5548 5545 5541 5539 5535 5533 5531 5529 5526 5523 5521 5520 5518 5518 5517 5517 5516 5515 5516 5516 5516
5592 5590 5590 5590 5589 5588 5588 5587 5586 5583 5581 5579 5577 5574 5573 5571 5568 5565 5561 5557 5553 5548 5544 5541 5538 5535 5531 5528 5526 5523 5518 5515 5514 5513 5513 5513 5513 5512 5512 5513 5512 5512 5512
5587 5585 5585 5585 5584 5583 5582 5582 5581 5579 5577 5575 5573 5571 5569 5568 5565 5561 5557 5553 5550 5545 5541 5537 5533 5530 5526 5523 5519 5515 5512 5510 5508 5507 5508 5509 5510 5510 5510 5510 5510 5509 5509